Location: Winnipauk Village
(41.1295°N, 73.4171°W)
Time: 13:57:33
(UTC+00:00)

Hubble Space Telescope - Pass Details

Date: 28 July 2021
Orbit: 535 x 539 km, 28.5° (Epoch: 21 September)

Event Time Altitude Azimuth Distance (km) Brightness Sun altitude
Rises 00:53:04 0° 238° (WSW) 2,667 4.7 -7.1°
Reaches altitude 10° 00:56:14 10° 212° (SSW) 1,775 3.4 -7.6°
Maximum altitude 00:58:23 14° 180° (S) 1,540 2.8 -7.9°
Drops below altitude 10° 01:00:32 10° 149° (SSE) 1,774 2.8 -8.2°
Enters shadow 01:00:51 - 145° (SE) 1,841 2.9 -8.3°
